Flag for Pakistan Weather past 2 weeks in Rawalpindi, Pakistan

Now
81 °F

Sunny.


Feels Like: 82 °F
Forecast: 65 / 91 °F
Wind: No wind

Location: Islamabad Airport

Current Time: Oct 21, 2014 at 12:50:03 PM

Latest Report: Oct 21, 2014 at 12:00 PM


Visibility: 4 mi

Pressure: 30.07 "Hg

Humidity: 54%

Dew point: 63 °F

Location of RawalpindiLocation

Historic Weather in Rawalpindi — Graph

°F

Rawalpindi temperature yesterday

Maximum temperature yesterday: 82 °F (at 2:00 PM)
Minimum temperature yesterday: 64 °F (at 5:00 AM)
Average temperature yesterday: 73 °F

Past Weeks' High & Low Weather Summary

 TemperatureHumidityPressure
High91 °F (Oct 6, 3:00 PM)94% (Oct 19, 6:00 AM)30.15 "Hg (Oct 19, 6:00 AM)
Low57 °F (Oct 16, 7:00 AM)28% (Oct 15, 8:00 PM)29.80 "Hg (Oct 7, 4:00 PM)
Average72 °F64%29.98 "Hg
* Reported Oct 6 11:00 AM — Oct 21 11:00 AM, Rawalpindi, Weather by CustomWeather, © 2014

Note: Actual official high and low records may vary slightly from our data, if they occured in-between our weather recording intervals... More about our weather records

Advertising

Rawalpindi weather history for previous 24 hours

 ConditionsComfort  
Time TempWeatherWind HumidityBarometerVisibility
11:00 AM
Oct 21
79 °FSunny.No wind58%30.09 "Hg4 mi
10:00 AM70 °FSunny.No wind64%30.09 "Hg4 mi
9:00 AM70 °FSunny.No wind69%30.09 "Hg4 mi
8:00 AM63 °FPassing clouds.No wind77%30.07 "Hg4 mi
7:00 AM61 °FPassing clouds.No wind83%30.04 "Hg4 mi
6:00 AM61 °FPassing clouds.No wind83%30.04 "Hg4 mi
5:00 AM63 °FClear.No wind83%30.04 "Hg4 mi
4:00 AM63 °FClear.5 mph83%30.01 "Hg4 mi
3:00 AM64 °FClear.5 mph78%30.04 "Hg4 mi
2:00 AM64 °FClear.No wind78%30.04 "Hg4 mi
1:00 AM64 °FClear.No wind78%30.04 "Hg4 mi
12:00 AM66 °FClear.5 mph73%30.04 "Hg4 mi
11:00 PM
Oct 20
68 °FClear.5 mph69%30.04 "Hg10 mi
10:00 PM68 °FClear.5 mph69%30.07 "Hg10 mi
9:00 PM70 °FPassing clouds.7 mph69%30.04 "HgN/A
8:00 PM72 °FPassing clouds.7 mph65%30.04 "HgN/A
7:00 PM73 °FPassing clouds.7 mph57%30.01 "HgN/A
6:00 PM77 °FPassing clouds.12 mph51%30.01 "HgN/A
5:00 PM79 °FPassing clouds.14 mph45%29.98 "HgN/A
4:00 PM81 °FPassing clouds.16 mph42%29.98 "HgN/A
3:00 PM81 °FPassing clouds.18 mph45%29.98 "HgN/A
2:00 PM82 °FPassing clouds.18 mph45%29.98 "HgN/A
1:00 PM81 °FPassing clouds.21 mph45%30.01 "Hg4 mi
12:00 PM81 °FHaze.18 mph54%30.01 "Hg4 mi
Weather by CustomWeather, © 2014

See weather overviewHow to use our weather pages